Total_Precipitation_Accumulation
0.00 0.00 0.00 0.00 0.00 0.00 0.00 0.00 0.00 0.00 0.00 0.00 0.00 0.00 0.00 0.00 0.00 0.00 0.00 0.00 0.00 0.00 0.00 0.00 0.00 0.00 0.00 0.00 0.00 0.00 0.02 0.01 0.03 0.08 0.10 0.05 0.06 0.14 0.04 0.02 0.01 0.01 0.02 0.05 0.04 0.06 0.05 0.03 0.01 0.01 0.01 0.00 0.00 0.00 0.00 0.00 0.00 0.00 0.00 0.00 0.01 0.01 0.01 0.01 0.02 0.01 0.00 0.00 0.00 0.01 0.00 0.00 0.01 0.00 0.01 0.01 0.00 0.00 0.01 0.01 0.01 0.01 0.02 0.08 0.01 0.01 0.01 0.01 0.02 0.02 0.02 0.04 0.02 0.04 0.04 0.04 0.04
0.00 0.00 0.00 0.00 0.00 0.00 0.00 0.00 0.00 0.00 0.00 0.00 0.00 0.00 0.00 0.00 0.00 0.00 0.00 0.00 0.00 0.00 0.00 0.00 0.00 0.00 0.00 0.00 0.00 0.00 0.00 0.01 0.02 0.02 0.08 0.09 0.14 0.09 0.06 0.02 0.01 0.02 0.03 0.04 0.03 0.03 0.02 0.05 0.01 0.00 0.01 0.00 0.00 0.00 0.00 0.00 0.00 0.00 0.00 0.00 0.01 0.01 0.01 0.00 0.00 0.00 0.00 0.00 0.01 0.01 0.02 0.01 0.02 0.02 0.02 0.00 0.00 0.00 0.01 0.03 0.04 0.05 0.02 0.02 0.02 0.01 0.02 0.02 0.01 0.01 0.02 0.02 0.01 0.02 0.02 0.02 0.01
0.00 0.00 0.00 0.00 0.00 0.00 0.00 0.00 0.00 0.00 0.00 0.00 0.00 0.00 0.00 0.00 0.00 0.00 0.00 0.00 0.00 0.00 0.00 0.00 0.00 0.00 0.00 0.00 0.00 0.00 0.18 0.04 0.04 0.04 0.10 0.10 0.08 0.31 0.08 0.05 0.02 0.01 0.02 0.04 0.03 0.02 0.04 0.04 0.02 0.02 0.01 0.00 0.00 0.00 0.00 0.00 0.00 0.00 0.00 0.00 0.02 0.01 0.00 0.01 0.00 0.01 0.01 0.01 0.01 0.01 0.02 0.01 0.02 0.01 0.00 0.00 0.00 0.01 0.02 0.02 0.04 0.05 0.05 0.02 0.01 0.01 0.01 0.01 0.04 0.03 0.01 0.01 0.01 0.01 0.02 0.02 0.02
0.00 0.00 0.00 0.00 0.00 0.00 0.00 0.00 0.00 0.00 0.00 0.00 0.00 0.00 0.00 0.00 0.00 0.00 0.00 0.00 0.00 0.00 0.00 0.00 0.00 0.00 0.00 0.01 0.00 0.00 0.01 0.02 0.05 0.03 0.09 0.12 0.12 0.11 0.09 0.03 0.03 0.03 0.04 0.05 0.03 0.04 0.03 0.05 0.02 0.01 0.01 0.00 0.00 0.00 0.00 0.00 0.00 0.00 0.00 0.00 0.00 0.00 0.01 0.00 0.01 0.00 0.02 0.02 0.01 0.01 0.01 0.02 0.03 0.01 0.00 0.01 0.00 0.01 0.01 0.01 0.03 0.04 0.03 0.02 0.03 0.03 0.02 0.06 0.01 0.04 0.02 0.01 0.01 0.01 0.01 0.01 0.02
0.00 0.00 0.00 0.00 0.00 0.00 0.00 0.00 0.00 0.00 0.00 0.00 0.00 0.00 0.00 0.00 0.00 0.00 0.00 0.00 0.00 0.00 0.00 0.00 0.00 0.00 0.00 0.07 0.00 0.03 0.11 0.05 0.02 0.06 0.03 0.07 0.03 0.06 0.05 0.03 0.05 0.04 0.07 0.07 0.05 0.04 0.07 0.07 0.02 0.02 0.00 0.01 0.01 0.01 0.01 0.00 0.00 0.00 0.00 0.00 0.01 0.01 0.01 0.01 0.02 0.02 0.01 0.02 0.02 0.01 0.01 0.02 0.02 0.01 0.01 0.01 0.01 0.00 0.00 0.01 0.02 0.04 0.03 0.01 0.03 0.01 0.01 0.01 0.01 0.01 0.01 0.01 0.01 0.01 0.03 0.01 0.01
0.00 0.00 0.00 0.00 0.00 0.00 0.00 0.00 0.00 0.00 0.00 0.00 0.00 0.00 0.00 0.00 0.00 0.00 0.00 0.00 0.00 0.00 0.00 0.00 0.00 0.00 0.00 0.01 0.01 0.10 0.05 0.16 0.01 0.03 0.04 0.07 0.05 0.04 0.03 0.02 0.04 0.05 0.09 0.06 0.06 0.03 0.06 0.03 0.02 0.01 0.00 0.01 0.01 0.01 0.01 0.02 0.01 0.00 0.00 0.00 0.01 0.00 0.00 0.02 0.03 0.03 0.01 0.01 0.00 0.02 0.02 0.02 0.04 0.03 0.01 0.03 0.02 0.01 0.01 0.01 0.03 0.02 0.05 0.01 0.00 0.01 0.01 0.01 0.01 0.00 0.01 0.01 0.00 0.01 0.01 0.00 0.00
0.00 0.00 0.00 0.00 0.00 0.00 0.00 0.00 0.00 0.00 0.00 0.00 0.00 0.00 0.00 0.00 0.00 0.00 0.00 0.00 0.00 0.00 0.00 0.00 0.00 0.00 0.02 0.01 0.00 0.05 0.03 0.02 0.07 0.04 0.03 0.06 0.05 0.04 0.03 0.04 0.07 0.11 0.08 0.07 0.13 0.06 0.06 0.02 0.00 0.00 0.01 0.01 0.02 0.02 0.03 0.02 0.01 0.01 0.01 0.01 0.01 0.01 0.01 0.03 0.03 0.02 0.02 0.01 0.01 0.03 0.05 0.02 0.04 0.03 0.08 0.03 0.06 0.04 0.03 0.02 0.04 0.05 0.02 0.01 0.01 0.02 0.01 0.01 0.01 0.01 0.00 0.00 0.00 0.00 0.00 0.00 0.00
0.00 0.00 0.00 0.00 0.00 0.00 0.00 0.00 0.00 0.00 0.00 0.00 0.00 0.00 0.00 0.00 0.00 0.00 0.00 0.00 0.00 0.00 0.00 0.00 0.00 0.01 0.27 0.00 0.16 0.04 0.02 0.01 0.05 0.04 0.04 0.05 0.06 0.07 0.04 0.08 0.07 0.17 0.17 0.26 0.33 0.08 0.26 0.01 0.00 0.00 0.01 0.01 0.02 0.02 0.02 0.01 0.02 0.02 0.02 0.01 0.01 0.01 0.02 0.02 0.02 0.01 0.01 0.01 0.02 0.04 0.04 0.03 0.04 0.01 0.09 0.10 0.05 0.02 0.02 0.05 0.04 0.06 0.07 0.01 0.01 0.02 0.02 0.01 0.01 0.00 0.00 0.00 0.00 0.01 0.00 0.00 0.00
0.00 0.00 0.00 0.00 0.00 0.00 0.00 0.00 0.00 0.00 0.00 0.00 0.00 0.00 0.00 0.00 0.00 0.00 0.00 0.00 0.00 0.00 0.00 0.00 0.00 0.01 0.05 0.05 0.12 0.06 0.04 0.06 0.04 0.05 0.17 0.04 0.04 0.05 0.06 0.08 0.10 0.25 0.20 0.28 0.38 0.32 0.13 0.10 0.04 0.01 0.02 0.01 0.03 0.04 0.03 0.02 0.03 0.01 0.02 0.02 0.01 0.01 0.00 0.00 0.01 0.01 0.01 0.01 0.02 0.06 0.06 0.09 0.04 0.05 0.06 0.08 0.10 0.10 0.06 0.03 0.04 0.06 0.04 0.03 0.03 0.02 0.02 0.01 0.00 0.01 0.00 0.00 0.00 0.00 0.00 0.00 0.00
0.00 0.00 0.00 0.00 0.00 0.00 0.00 0.00 0.00 0.00 0.00 0.00 0.00 0.00 0.00 0.00 0.00 0.00 0.00 0.00 0.00 0.00 0.00 0.00 0.00 0.00 0.03 0.06 0.08 0.10 0.11 0.08 0.05 0.07 0.16 0.27 0.26 0.04 0.04 0.09 0.10 0.19 0.21 0.40 0.36 0.39 0.32 0.67 0.27 0.12 0.02 0.03 0.03 0.06 0.07 0.03 0.03 0.01 0.01 0.02 0.00 0.00 0.00 0.00 0.01 0.01 0.01 0.04 0.06 0.03 0.03 0.03 0.02 0.03 0.04 0.05 0.05 0.09 0.11 0.06 0.09 0.08 0.09 0.03 0.03 0.02 0.01 0.02 0.02 0.01 0.00 0.00 0.00 0.00 0.00 0.00 0.00
0.00 0.00 0.00 0.00 0.00 0.00 0.00 0.00 0.00 0.00 0.00 0.00 0.00 0.00 0.00 0.00 0.00 0.00 0.00 0.00 0.00 0.00 0.00 0.00 0.00 0.01 0.00 0.19 0.34 0.09 0.06 0.06 0.13 0.10 0.21 0.17 0.15 0.16 0.07 0.09 0.15 0.17 0.41 0.37 0.81 0.91 0.26 0.39 0.56 0.21 0.07 0.03 0.06 0.06 0.13 0.13 0.11 0.05 0.02 0.01 0.01 0.00 0.00 0.01 0.02 0.01 0.02 0.01 0.05 0.05 0.03 0.04 0.02 0.02 0.03 0.07 0.04 0.06 0.08 0.07 0.06 0.09 0.09 0.06 0.03 0.01 0.01 0.01 0.02 0.00 0.00 0.00 0.00 0.00 0.00 0.00 0.00
0.00 0.00 0.00 0.00 0.00 0.00 0.00 0.00 0.00 0.00 0.00 0.00 0.00 0.00 0.00 0.00 0.00 0.00 0.00 0.00 0.00 0.00 0.00 0.00 0.00 0.00 0.04 0.06 0.33 0.24 0.13 0.16 0.24 0.18 0.12 0.08 0.13 0.08 0.08 0.09 0.11 0.26 0.34 0.31 0.26 0.53 0.97 0.76 0.71 0.89 0.71 0.13 0.19 0.41 0.32 0.46 0.09 0.08 0.04 0.04 0.03 0.03 0.01 0.01 0.03 0.04 0.03 0.02 0.03 0.03 0.01 0.02 0.02 0.03 0.06 0.06 0.04 0.08 0.06 0.05 0.05 0.04 0.12 0.03 0.04 0.00 0.00 0.00 0.01 0.02 0.01 0.00 0.00 0.00 0.00 0.00 0.00
0.00 0.00 0.00 0.00 0.00 0.00 0.00 0.00 0.00 0.00 0.00 0.00 0.00 0.00 0.00 0.00 0.00 0.00 0.00 0.00 0.00 0.00 0.00 0.00 0.00 0.01 0.51 0.24 0.20 0.32 0.30 0.31 0.39 0.42 0.15 0.09 0.07 0.12 0.10 0.09 0.11 0.16 0.22 0.29 0.28 0.37 0.56 0.82 0.69 1.28 0.78 0.75 0.32 0.22 0.44 0.18 0.07 0.12 0.16 0.23 0.13 0.09 0.00 0.01 0.04 0.03 0.04 0.06 0.05 0.05 0.03 0.02 0.03 0.04 0.06 0.04 0.04 0.05 0.02 0.03 0.01 0.02 0.06 0.05 0.02 0.01 0.00 0.01 0.01 0.00 0.00 0.00 0.00 0.00 0.00 0.00 0.00
0.00 0.00 0.00 0.00 0.00 0.00 0.00 0.00 0.00 0.00 0.00 0.00 0.00 0.00 0.00 0.00 0.00 0.00 0.00 0.00 0.00 0.00 0.00 0.00 0.02 0.01 0.38 0.12 0.42 0.26 0.29 0.42 0.45 0.42 0.14 0.07 0.07 0.12 0.09 0.24 0.18 0.14 0.16 0.44 0.55 0.48 0.97 2.16 2.55 1.69 1.84 0.93 0.57 0.42 0.48 0.29 0.23 0.27 0.31 0.17 0.03 0.04 0.06 0.06 0.04 0.04 0.03 0.04 0.03 0.04 0.04 0.02 0.02 0.09 0.09 0.02 0.04 0.03 0.02 0.01 0.01 0.02 0.01 0.03 0.01 0.00 0.00 0.00 0.00 0.00 0.00 0.00 0.00 0.00 0.00 0.00 0.00
0.00 0.00 0.00 0.00 0.00 0.00 0.00 0.00 0.00 0.00 0.00 0.00 0.00 0.00 0.00 0.00 0.00 0.00 0.00 0.00 0.00 0.01 0.00 0.00 0.01 0.02 0.88 0.09 0.22 0.19 0.16 0.17 0.24 0.20 0.13 0.08 0.12 0.09 0.10 0.12 0.21 0.18 0.30 0.95 0.40 0.88 1.25 1.76 1.43 0.98 0.74 0.91 0.72 0.56 0.58 0.45 0.25 0.24 0.25 0.15 0.06 0.03 0.01 0.01 0.02 0.02 0.03 0.03 0.02 0.06 0.05 0.02 0.07 0.15 0.12 0.05 0.04 0.03 0.02 0.01 0.05 0.01 0.01 0.01 0.01 0.00 0.00 0.00 0.00 0.00 0.00 0.00 0.00 0.00 0.00 0.00 0.00
0.00 0.00 0.00 0.00 0.00 0.00 0.00 0.00 0.00 0.00 0.00 0.00 0.00 0.00 0.00 0.00 0.00 0.00 0.00 0.00 0.00 0.00 0.00 0.02 0.00 0.13 0.11 0.07 0.12 0.11 0.07 0.11 0.24 0.07 0.07 0.11 0.12 0.13 0.10 0.19 0.34 0.19 0.30 0.66 1.42 1.24 1.45 2.10 1.79 0.94 1.00 1.12 1.15 1.18 0.69 0.66 0.31 0.21 0.12 0.08 0.07 0.08 0.08 0.08 0.10 0.10 0.08 0.04 0.10 0.11 0.12 0.17 0.22 0.23 0.13 0.13 0.04 0.03 0.01 0.10 0.02 0.01 0.01 0.01 0.01 0.01 0.01 0.00 0.00 0.00 0.00 0.00 0.00 0.00 0.00 0.00 0.00
0.00 0.00 0.00 0.00 0.00 0.00 0.00 0.00 0.00 0.00 0.00 0.00 0.00 0.00 0.00 0.00 0.00 0.00 0.00 0.00 0.01 0.00 0.00 0.00 0.02 0.01 0.09 0.06 0.09 0.09 0.12 0.06 0.27 0.20 0.07 0.14 0.13 0.14 0.23 0.24 0.24 0.38 0.55 0.90 1.14 1.06 0.94 0.99 1.56 0.90 0.91 2.19 1.35 1.63 1.16 0.56 0.54 0.19 0.21 0.17 0.10 0.11 0.11 0.12 0.10 0.16 0.11 0.24 0.24 0.17 0.25 0.22 0.35 0.29 0.21 0.18 0.19 0.11 0.01 0.01 0.01 0.01 0.00 0.00 0.01 0.01 0.01 0.00 0.00 0.00 0.00 0.00 0.00 0.00 0.00 0.00 0.00
0.00 0.00 0.00 0.00 0.00 0.00 0.00 0.00 0.00 0.00 0.00 0.00 0.00 0.00 0.00 0.00 0.00 0.00 0.00 0.00 0.00 0.00 0.01 0.06 0.01 0.06 0.04 0.06 0.11 0.03 0.09 0.16 0.39 0.32 0.17 0.13 0.11 0.14 0.29 0.27 0.27 0.33 0.29 0.44 0.40 0.69 0.96 0.82 0.86 1.43 1.43 1.45 1.78 1.93 1.37 0.46 0.94 0.56 0.45 0.34 0.45 0.28 0.25 0.16 0.15 0.10 0.29 0.31 0.31 0.22 0.36 0.50 0.42 0.29 0.38 0.51 0.44 0.27 0.14 0.03 0.05 0.01 0.01 0.01 0.00 0.00 0.00 0.00 0.00 0.00 0.00 0.00 0.00 0.00 0.00 0.00 0.00
0.00 0.00 0.00 0.00 0.00 0.00 0.00 0.00 0.00 0.00 0.00 0.00 0.00 0.00 0.00 0.00 0.00 0.00 0.05 0.01 0.00 0.00 0.02 0.21 0.09 0.12 0.07 0.05 0.06 0.08 0.06 0.21 0.48 1.20 0.21 0.12 0.13 0.26 0.59 0.73 0.27 0.20 0.28 0.43 1.05 1.50 0.85 1.46 1.16 1.80 1.04 0.79 1.26 1.11 0.89 0.59 0.32 0.43 0.53 0.47 0.46 0.25 0.39 0.13 0.09 0.14 0.14 0.12 0.07 0.24 0.43 0.79 0.63 0.67 0.81 0.48 0.46 0.27 0.40 0.19 0.08 0.04 0.03 0.01 0.00 0.00 0.01 0.00 0.00 0.00 0.00 0.00 0.00 0.00 0.01 0.01 0.01
0.00 0.00 0.00 0.00 0.00 0.00 0.00 0.00 0.00 0.00 0.00 0.00 0.00 0.00 0.00 0.00 0.00 0.00 0.01 0.00 0.00 0.01 0.09 0.18 0.30 0.19 0.13 0.10 0.08 0.06 0.09 0.23 0.90 1.22 0.63 0.17 0.24 0.48 0.96 0.78 0.31 0.27 0.49 0.88 1.17 0.58 0.64 1.57 1.56 1.18 0.65 2.27 0.85 1.00 1.34 0.74 0.41 0.43 0.40 0.45 0.39 0.27 0.13 0.18 0.10 0.11 0.22 0.24 0.23 0.40 0.40 0.48 0.75 1.02 0.69 0.64 0.40 0.62 0.20 0.10 0.04 0.06 0.12 0.03 0.00 0.01 0.01 0.00 0.00 0.03 0.03 0.00 0.00 0.01 0.07 0.10 0.03
0.00 0.00 0.00 0.00 0.00 0.00 0.00 0.00 0.00 0.00 0.00 0.00 0.00 0.00 0.00 0.00 0.00 0.00 0.00 0.01 0.02 0.04 0.26 0.10 0.13 0.12 0.13 0.11 0.05 0.08 0.15 0.34 1.18 1.36 0.73 0.26 0.60 1.38 1.67 1.62 1.80 0.92 0.55 1.24 0.84 0.62 0.64 1.67 1.61 1.69 2.06 1.37 2.02 2.10 1.09 1.05 0.66 0.81 0.94 0.73 0.28 0.32 0.15 0.17 0.33 0.19 0.75 0.77 0.36 1.41 0.60 0.70 0.54 0.83 0.49 0.58 0.61 0.24 0.11 0.15 0.11 0.09 0.10 0.12 0.10 0.18 0.07 0.12 0.03 0.04 0.02 0.01 0.02 0.03 0.06 0.07 0.21
0.00 0.00 0.00 0.00 0.00 0.00 0.00 0.00 0.00 0.00 0.00 0.00 0.00 0.00 0.00 0.00 0.00 0.00 0.00 0.00 0.02 0.03 0.04 0.07 0.09 0.09 0.09 0.08 0.11 0.10 0.17 0.85 1.24 0.62 0.26 0.59 0.88 1.04 1.26 1.74 1.59 1.29 1.23 1.85 1.01 1.36 1.10 1.62 1.77 1.15 1.63 1.93 1.84 1.73 1.53 0.40 0.49 0.66 0.77 1.03 0.42 0.26 0.20 0.34 0.49 0.92 0.73 1.23 0.85 1.19 1.22 0.82 0.74 1.16 0.67 0.47 0.87 0.47 0.60 0.62 0.13 0.42 0.16 0.18 0.13 0.37 0.18 0.07 0.13 0.05 0.02 0.05 0.02 0.04 0.06 0.14 0.21
0.00 0.00 0.00 0.00 0.00 0.00 0.00 0.00 0.00 0.00 0.00 0.00 0.00 0.00 0.00 0.00 0.00 0.00 0.00 0.00 0.00 0.00 0.01 0.02 0.09 0.12 0.05 0.06 0.09 0.11 0.18 1.10 0.40 0.37 0.46 0.55 0.64 1.71 1.81 2.08 1.13 0.49 1.85 0.92 0.74 0.93 1.98 1.21 1.19 1.36 1.50 2.02 1.69 1.53 1.89 0.94 1.65 1.47 0.74 0.74 0.25 0.28 0.52 0.45 0.23 0.83 0.87 1.19 1.79 1.40 1.44 0.86 0.46 0.85 0.67 0.58 0.45 0.25 0.54 0.42 0.19 0.32 0.20 0.46 0.08 0.37 0.09 0.08 0.11 0.09 0.05 0.03 0.01 0.01 0.03 0.05 0.45
0.00 0.00 0.00 0.00 0.00 0.00 0.00 0.00 0.00 0.00 0.00 0.00 0.00 0.00 0.00 0.00 0.00 0.00 0.00 0.00 0.00 0.00 0.00 0.00 0.04 0.11 0.05 0.07 0.07 0.12 0.45 0.32 0.25 0.34 0.31 0.71 1.41 1.63 1.74 1.97 1.66 2.17 1.44 1.42 1.67 2.02 2.04 1.07 0.98 1.01 1.06 1.31 1.24 1.82 1.84 1.47 1.24 0.88 0.95 0.90 1.22 0.83 0.85 0.63 0.44 0.93 0.74 1.13 1.00 1.13 1.02 0.39 0.70 0.83 0.61 0.38 0.31 0.39 0.56 0.17 0.46 0.26 0.36 0.26 0.14 0.23 0.06 0.05 0.02 0.03 0.02 0.06 0.01 0.02 0.03 0.15 0.29
0.00 0.00 0.00 0.00 0.00 0.00 0.00 0.00 0.00 0.00 0.00 0.00 0.00 0.00 0.00 0.00 0.00 0.00 0.00 0.00 0.00 0.00 0.00 0.00 0.01 0.05 0.09 0.07 0.10 0.20 0.14 0.19 0.08 0.17 0.28 0.44 0.59 1.02 1.55 1.67 1.88 1.49 1.43 1.31 2.51 2.41 1.04 1.51 0.88 0.59 0.65 0.89 1.50 1.63 1.18 1.36 1.53 1.62 1.64 0.99 1.03 1.07 1.50 1.07 1.06 1.09 1.13 0.94 0.87 1.03 0.91 0.50 0.67 0.64 0.59 0.54 0.55 0.43 0.71 0.40 0.28 0.40 0.33 0.38 0.21 0.16 0.04 0.03 0.03 0.04 0.01 0.03 0.01 0.02 0.07 0.03 0.09
0.00 0.00 0.00 0.00 0.00 0.00 0.00 0.00 0.00 0.00 0.00 0.00 0.00 0.00 0.00 0.00 0.00 0.00 0.00 0.00 0.00 0.00 0.00 0.00 0.01 0.07 0.12 0.09 0.08 0.10 0.15 0.11 0.11 0.14 0.19 0.27 0.64 0.90 1.03 1.40 1.61 1.41 2.02 1.51 1.16 1.30 1.04 0.94 0.74 0.56 0.92 1.38 1.45 2.01 1.32 1.29 1.54 1.64 1.59 1.21 2.24 1.65 1.97 1.71 1.64 1.22 1.13 1.00 0.84 0.78 0.65 0.77 0.64 0.38 0.54 0.54 0.33 0.62 0.33 0.18 0.19 0.29 0.28 0.13 0.18 0.24 0.33 0.07 0.09 0.02 0.02 0.02 0.05 0.04 0.05 0.07 0.04
0.00 0.00 0.00 0.00 0.00 0.00 0.00 0.00 0.00 0.00 0.00 0.00 0.00 0.00 0.00 0.00 0.00 0.00 0.00 0.00 0.00 0.00 0.00 0.02 0.02 0.03 0.08 0.14 0.09 0.13 0.08 0.16 0.21 0.28 0.30 0.71 0.79 0.64 0.97 0.84 1.81 2.17 2.00 1.93 1.17 2.00 1.70 0.91 0.90 1.05 1.19 1.88 2.15 1.27 1.94 1.96 1.61 1.77 1.92 1.88 1.44 1.39 1.36 0.92 1.91 2.02 1.32 0.53 0.79 0.55 0.66 0.79 0.34 0.33 0.55 0.27 0.34 0.23 0.19 0.29 0.20 0.32 0.21 0.23 0.31 0.39 0.32 0.47 0.23 0.03 0.03 0.07 0.08 0.03 0.04 0.14 0.11
0.00 0.00 0.00 0.00 0.00 0.00 0.00 0.00 0.00 0.00 0.00 0.00 0.00 0.00 0.00 0.00 0.00 0.00 0.00 0.00 0.00 0.00 0.01 0.01 0.04 0.19 0.09 0.15 0.15 0.18 0.16 0.18 0.25 0.48 0.61 1.16 1.01 1.19 0.82 0.53 1.60 1.44 2.71 1.95 1.78 1.27 0.94 1.16 1.39 1.00 1.32 1.74 2.17 1.54 1.89 2.56 1.67 1.25 1.38 1.27 1.82 1.29 1.11 1.13 1.68 1.43 1.11 1.07 0.69 0.81 1.13 0.96 0.85 0.39 0.44 0.38 0.57 0.23 0.16 0.12 0.14 0.36 0.76 0.41 0.20 0.19 0.28 0.36 0.24 0.30 0.07 0.11 0.10 0.06 0.27 0.15 0.28
0.00 0.00 0.00 0.00 0.00 0.00 0.00 0.00 0.00 0.00 0.00 0.00 0.00 0.00 0.00 0.00 0.00 0.00 0.00 0.00 0.00 0.00 0.00 0.01 0.02 0.32 0.14 0.14 0.09 0.15 0.19 0.20 0.26 0.35 0.91 1.21 1.02 1.29 0.92 1.09 1.42 1.77 1.78 1.55 1.71 1.19 1.02 1.32 1.44 0.91 1.37 2.14 3.02 2.61 1.64 2.26 2.85 2.01 1.52 1.25 1.10 1.02 0.95 0.71 1.15 1.01 1.28 1.14 0.84 0.76 0.76 0.51 0.65 0.51 0.44 0.31 0.21 0.23 0.23 0.10 0.13 0.40 0.59 0.33 0.30 0.37 0.42 0.28 0.44 0.56 0.46 0.50 0.42 0.20 0.19 0.53 0.52
0.00 0.00 0.00 0.00 0.00 0.00 0.00 0.00 0.00 0.00 0.00 0.00 0.00 0.00 0.00 0.00 0.00 0.00 0.00 0.00 0.00 0.00 0.01 0.03 0.15 0.15 0.06 0.13 0.12 0.12 0.11 0.29 0.62 0.72 1.07 1.43 1.22 1.04 1.29 1.56 1.00 1.32 1.53 1.22 1.13 0.98 1.21 1.47 1.52 1.65 2.06 1.74 2.56 2.41 2.02 2.10 1.56 1.39 1.21 1.04 0.68 0.65 0.80 0.91 1.18 1.20 0.75 0.95 0.83 0.98 0.60 0.92 0.75 0.84 0.61 0.43 0.33 0.29 0.54 0.25 0.22 0.27 0.45 0.27 0.24 0.32 0.34 0.51 0.63 0.38 0.35 0.27 0.56 0.40 0.43 0.43 0.77
0.00 0.00 0.00 0.00 0.00 0.00 0.00 0.00 0.00 0.00 0.00 0.00 0.00 0.00 0.00 0.00 0.00 0.00 0.00 0.01 0.00 0.00 0.00 0.06 0.15 0.20 0.08 0.12 0.20 0.21 0.21 0.21 0.58 0.80 0.77 0.83 1.20 0.97 1.11 0.74 0.80 0.67 0.60 0.90 1.07 0.90 0.94 1.17 1.14 0.92 0.82 1.25 1.11 1.35 1.38 1.49 1.22 1.10 0.87 0.65 0.56 0.89 0.77 0.81 0.76 0.76 0.88 0.50 0.94 1.03 0.78 0.47 0.49 0.45 0.47 0.37 0.25 0.18 0.16 0.13 0.13 0.40 0.26 0.44 0.75 0.42 0.61 0.76 0.47 0.26 0.25 0.42 0.43 0.55 0.44 0.75 0.94
0.00 0.00 0.00 0.00 0.00 0.00 0.00 0.00 0.00 0.00 0.00 0.00 0.00 0.00 0.00 0.00 0.00 0.00 0.00 0.00 0.01 0.00 0.00 0.05 0.05 0.08 0.09 0.10 0.09 0.09 0.13 0.20 0.37 0.60 0.75 0.97 0.57 0.80 0.83 0.54 0.68 0.41 0.59 0.81 0.81 0.74 0.58 0.54 0.59 0.62 0.61 0.48 1.43 1.10 1.12 0.90 1.17 1.20 0.72 0.30 0.71 0.79 0.65 0.65 0.84 0.87 0.76 0.80 0.89 0.41 0.63 0.62 0.51 0.59 0.32 0.36 0.38 0.45 0.27 0.20 0.19 0.45 0.40 0.35 0.47 0.29 0.61 0.86 0.59 0.58 0.70 0.90 0.71 0.71 0.68 0.71 1.03
0.00 0.00 0.00 0.00 0.00 0.00 0.00 0.00 0.00 0.00 0.00 0.00 0.00 0.00 0.00 0.00 0.00 0.00 0.00 0.00 0.00 0.00 0.01 0.03 0.04 0.10 0.13 0.11 0.14 0.07 0.06 0.15 0.10 0.22 0.38 0.29 0.28 0.42 0.75 0.55 0.44 0.29 0.35 0.51 0.93 0.81 0.60 0.56 0.65 0.64 0.59 0.54 0.99 1.07 1.31 1.13 1.42 0.82 0.70 0.65 0.65 0.65 0.89 0.87 0.82 1.32 0.71 0.93 0.81 0.86 0.76 0.43 0.26 0.40 0.65 0.44 0.91 0.78 0.67 0.79 0.62 0.55 0.36 0.29 0.51 0.53 0.34 0.18 0.34 0.80 0.68 0.81 1.34 1.41 1.22 0.62 1.00
0.00 0.00 0.00 0.00 0.00 0.00 0.00 0.00 0.00 0.00 0.00 0.00 0.00 0.00 0.00 0.00 0.00 0.00 0.00 0.00 0.00 0.00 0.00 0.01 0.05 0.10 0.17 0.14 0.04 0.06 0.09 0.08 0.07 0.06 0.18 0.24 0.26 0.27 0.67 0.71 0.44 0.22 0.31 0.58 0.42 0.36 0.29 0.47 0.76 0.64 0.31 0.51 0.93 1.07 1.30 1.03 0.80 0.93 0.51 0.39 0.60 0.29 0.47 0.24 0.45 0.92 0.69 1.16 0.73 0.72 0.33 0.33 0.42 0.67 0.55 1.17 1.35 0.82 1.11 1.27 0.88 0.56 0.69 0.64 0.43 0.63 0.89 0.67 0.63 0.74 0.73 0.69 0.91 1.00 0.60 0.86 0.78
0.00 0.00 0.00 0.00 0.00 0.00 0.00 0.00 0.00 0.00 0.00 0.00 0.00 0.00 0.00 0.00 0.00 0.00 0.00 0.00 0.00 0.00 0.00 0.00 0.05 0.08 0.15 0.26 0.12 0.05 0.04 0.03 0.06 0.10 0.15 0.28 0.16 0.39 0.39 0.37 0.44 0.16 0.21 0.48 0.39 0.23 0.29 0.29 0.67 0.51 0.20 0.40 0.84 0.80 0.46 0.38 0.53 0.53 0.32 0.33 0.24 0.60 0.68 0.35 0.78 0.87 0.88 1.18 1.20 0.84 0.64 1.23 1.10 1.53 1.84 1.67 1.25 0.89 0.83 0.78 0.97 0.77 0.76 0.99 0.84 0.71 0.67 0.56 0.82 0.83 0.75 1.26 1.20 1.14 0.48 0.56 0.59
0.00 0.01 0.00 0.00 0.00 0.00 0.00 0.00 0.00 0.00 0.00 0.00 0.00 0.00 0.00 0.00 0.00 0.00 0.00 0.00 0.00 0.00 0.00 0.01 0.02 0.02 0.10 0.22 0.41 0.12 0.04 0.05 0.11 0.33 0.33 0.14 0.10 0.60 0.44 0.27 0.37 0.41 0.21 0.27 0.37 0.32 0.20 0.37 0.16 0.24 0.19 0.21 0.32 0.64 0.51 0.37 0.22 0.17 0.27 0.37 0.56 0.71 0.66 0.33 0.73 1.32 1.09 0.99 0.59 0.78 1.13 1.19 1.13 1.42 0.94 1.51 1.36 0.91 1.15 1.04 1.15 0.80 0.85 0.87 1.07 0.91 0.67 0.60 0.42 0.62 0.79 0.89 0.83 0.52 0.93 0.87 0.62
0.00 0.00 0.00 0.00 0.00 0.00 0.00 0.00 0.00 0.00 0.00 0.00 0.00 0.00 0.00 0.00 0.00 0.00 0.00 0.00 0.00 0.00 0.00 0.00 0.00 0.03 0.05 0.11 0.09 0.20 0.32 0.09 0.22 0.51 0.74 0.26 0.31 0.27 0.40 0.61 0.57 0.43 0.25 0.32 0.36 0.55 0.42 0.45 0.43 0.25 0.26 0.19 0.36 0.76 0.36 0.28 0.16 0.19 0.20 0.24 0.41 0.63 0.34 0.30 0.69 0.76 0.66 0.62 0.53 0.91 1.20 0.91 1.30 1.12 1.18 1.42 0.84 0.90 0.97 0.79 1.04 1.04 1.22 0.98 0.99 1.11 1.12 0.77 0.54 0.86 0.80 0.46 1.03 0.36 0.49 0.49 0.65
0.00 0.00 0.00 0.00 0.00 0.00 0.00 0.00 0.00 0.00 0.00 0.00 0.00 0.00 0.00 0.00 0.00 0.00 0.00 0.00 0.00 0.00 0.00 0.00 0.00 0.02 0.05 0.08 0.08 0.10 0.15 0.34 0.18 0.38 0.84 0.41 0.40 0.26 0.43 0.22 0.36 0.35 0.35 0.38 0.47 0.99 0.70 0.20 0.55 0.71 0.37 0.23 0.40 0.96 0.73 0.34 0.26 0.08 0.09 0.17 0.41 0.47 0.26 0.30 0.32 0.84 0.78 0.48 0.73 0.62 1.38 1.69 1.20 0.76 0.88 1.24 1.17 1.18 1.13 0.99 1.40 1.36 1.27 1.19 1.04 0.90 0.94 0.75 0.77 0.84 0.43 0.73 0.60 0.55 1.31 0.66 0.93
0.00 0.00 0.00 0.00 0.00 0.00 0.00 0.00 0.00 0.00 0.00 0.00 0.00 0.00 0.00 0.00 0.01 0.01 0.00 0.00 0.01 0.01 0.01 0.01 0.00 0.01 0.05 0.08 0.04 0.12 0.11 0.32 0.39 0.31 0.95 0.45 0.32 0.28 0.30 0.34 0.45 0.54 0.54 0.53 0.77 0.48 0.39 0.36 0.47 0.34 0.50 0.40 0.75 0.95 0.42 0.51 0.49 0.25 0.15 0.14 0.40 0.58 0.23 0.14 0.34 0.40 1.11 0.63 0.70 0.58 1.24 1.21 1.44 0.48 0.57 0.62 1.16 0.78 1.21 1.52 1.39 1.47 1.08 0.94 0.99 0.79 0.77 0.49 0.98 0.56 0.52 0.27 0.47 0.81 0.82 0.74 0.95
0.00 0.00 0.00 0.00 0.00 0.00 0.00 0.00 0.00 0.00 0.00 0.00 0.00 0.00 0.00 0.00 0.00 0.01 0.01 0.00 0.01 0.00 0.00 0.00 0.00 0.03 0.03 0.08 0.02 0.07 0.04 0.21 0.25 0.53 0.77 0.43 0.59 0.28 0.41 0.48 0.71 0.84 0.63 0.63 0.83 0.35 0.46 0.36 0.28 0.16 0.45 0.83 0.70 0.62 0.25 0.38 0.34 0.33 0.19 0.28 0.21 0.43 0.32 0.12 0.39 0.43 0.39 0.46 0.64 0.56 0.78 0.57 0.89 1.33 1.20 1.14 0.27 0.18 0.40 0.71 0.56 0.65 0.90 0.70 0.71 0.92 0.83 0.63 0.58 0.50 0.39 0.34 0.44 0.94 0.52 0.63 0.78
0.00 0.00 0.00 0.00 0.00 0.00 0.00 0.01 0.00 0.00 0.00 0.00 0.00 0.00 0.00 0.00 0.00 0.00 0.01 0.00 0.00 0.00 0.00 0.00 0.01 0.02 0.02 0.13 0.02 0.01 0.06 0.28 0.16 0.41 0.33 0.34 0.21 0.22 0.22 0.68 0.95 0.90 0.97 0.75 0.50 0.47 0.69 0.69 0.49 0.31 0.25 0.43 0.76 0.34 0.37 0.35 0.22 0.17 0.15 0.20 0.14 0.26 0.21 0.20 0.39 0.27 0.79 0.48 0.49 0.40 0.29 0.52 0.66 0.74 0.71 0.82 1.06 0.65 0.21 0.17 0.37 0.28 0.61 0.57 0.55 0.74 0.86 0.83 0.88 0.64 0.39 0.29 0.46 0.75 0.61 0.56 0.72
0.00 0.00 0.00 0.00 0.00 0.00 0.00 0.00 0.00 0.00 0.00 0.00 0.00 0.00 0.01 0.00 0.01 0.01 0.01 0.00 0.00 0.00 0.00 0.01 0.01 0.02 0.03 0.17 0.05 0.03 0.24 0.15 0.27 0.12 0.19 0.22 0.19 0.26 0.25 0.27 0.25 0.55 0.66 0.61 0.79 0.78 0.70 0.50 0.27 0.37 0.22 0.19 0.16 0.16 0.11 0.08 0.08 0.14 0.08 0.16 0.12 0.15 0.09 0.46 0.87 0.55 0.43 0.24 0.24 0.29 0.29 0.45 0.58 0.51 0.25 0.19 0.39 0.35 0.11 0.11 0.08 0.17 0.69 0.39 0.35 0.43 0.68 0.93 0.77 1.08 0.57 0.62 0.50 0.54 0.92 0.39 0.80
0.00 0.00 0.00 0.00 0.00 0.00 0.00 0.00 0.00 0.00 0.01 0.01 0.00 0.00 0.01 0.00 0.01 0.00 0.00 0.01 0.01 0.00 0.01 0.01 0.01 0.01 0.01 0.16 0.04 0.05 0.04 0.14 0.24 0.14 0.21 0.09 0.08 0.09 0.18 0.26 0.23 0.41 0.77 1.40 1.15 1.14 1.03 0.90 0.31 0.49 0.10 0.26 0.19 0.15 0.06 0.07 0.18 0.19 0.16 0.07 0.08 0.17 0.29 0.42 0.42 0.42 0.27 0.15 0.21 0.50 0.33 0.28 0.41 0.11 0.04 0.09 0.22 0.40 0.32 0.11 0.06 0.10 0.09 0.18 0.64 0.49 0.42 0.47 0.55 0.36 0.51 0.39 0.29 0.55 0.80 0.64 0.57
0.00 0.00 0.00 0.00 0.00 0.00 0.00 0.00 0.00 0.00 0.00 0.00 0.00 0.00 0.03 0.01 0.00 0.00 0.00 0.01 0.01 0.01 0.02 0.02 0.02 0.02 0.02 0.02 0.05 0.04 0.09 0.13 0.24 0.17 0.12 0.13 0.09 0.11 0.21 0.14 0.34 0.75 1.17 1.81 1.35 1.15 1.42 1.17 0.58 0.49 0.16 0.12 0.18 0.20 0.09 0.20 0.23 0.14 0.09 0.12 0.27 0.46 0.26 0.23 0.19 0.21 0.51 0.55 0.31 0.15 0.14 0.23 0.13 0.12 0.10 0.20 0.26 0.73 0.30 0.05 0.06 0.10 0.08 0.23 0.41 0.23 0.20 0.29 0.35 0.29 0.27 0.60 0.80 0.83 1.13 1.01 0.51
0.00 0.00 0.00 0.00 0.00 0.00 0.00 0.00 0.00 0.01 0.01 0.02 0.00 0.00 0.00 0.01 0.01 0.00 0.00 0.01 0.01 0.02 0.03 0.03 0.03 0.03 0.03 0.03 0.11 0.15 0.06 0.07 0.11 0.12 0.09 0.20 0.16 0.15 0.14 0.11 0.32 0.62 0.72 1.29 1.69 1.42 1.85 1.03 0.58 0.26 0.29 0.27 0.28 0.16 0.11 0.17 0.23 0.26 0.22 0.28 0.60 0.25 0.42 0.21 0.19 0.36 0.44 0.55 0.43 0.26 0.16 0.12 0.08 0.05 0.05 0.19 0.09 0.43 0.64 0.07 0.05 0.07 0.12 0.28 0.25 0.32 0.40 0.22 0.19 0.17 0.27 0.60 0.35 0.26 0.56 0.75 0.49
0.00 0.00 0.00 0.00 0.00 0.00 0.00 0.00 0.00 0.02 0.00 0.02 0.00 0.02 0.04 0.01 0.00 0.01 0.01 0.00 0.03 0.06 0.06 0.08 0.11 0.07 0.07 0.06 0.16 0.18 0.09 0.09 0.12 0.15 0.15 0.24 0.21 0.44 0.21 0.12 0.10 0.28 0.96 0.89 1.66 1.98 1.17 0.80 0.70 0.24 0.20 0.47 0.60 0.30 0.48 0.40 0.34 0.40 0.30 0.17 0.17 0.46 0.34 0.45 0.51 0.43 0.57 0.45 0.24 0.39 0.18 0.18 0.10 0.10 0.05 0.06 0.06 0.42 0.54 0.16 0.09 0.15 0.14 0.09 0.10 0.12 0.34 0.31 0.26 0.29 0.19 0.36 0.19 0.35 0.23 0.12 0.37
0.00 0.00 0.00 0.00 0.00 0.00 0.00 0.00 0.01 0.04 0.00 0.04 0.00 0.02 0.00 0.02 0.03 0.05 0.04 0.08 0.09 0.06 0.06 0.08 0.07 0.05 0.03 0.05 0.08 0.15 0.23 0.09 0.13 0.42 0.52 0.51 0.54 0.40 0.32 0.12 0.43 0.41 1.81 2.64 1.20 0.87 1.00 0.98 0.79 0.75 0.61 0.59 0.26 0.30 0.35 0.45 0.28 0.35 0.41 0.39 0.45 0.42 0.60 0.31 0.55 0.59 0.35 0.31 0.19 0.28 0.26 0.11 0.06 0.14 0.09 0.06 0.13 0.68 0.15 0.11 0.10 0.07 0.18 0.21 0.10 0.13 0.14 0.27 0.16 0.26 0.44 0.45 0.28 0.37 0.27 0.18 0.40
0.00 0.00 0.00 0.00 0.00 0.00 0.00 0.00 0.00 0.01 0.00 0.02 0.01 0.01 0.01 0.05 0.05 0.06 0.05 0.02 0.05 0.06 0.07 0.07 0.07 0.05 0.11 0.12 0.10 0.12 0.14 0.14 0.27 0.33 0.24 0.26 0.21 0.19 0.25 0.87 2.35 2.05 1.51 2.26 1.13 1.15 1.36 1.31 1.41 0.99 0.83 0.30 0.23 0.12 0.13 0.16 0.32 0.92 0.94 0.50 0.66 0.55 0.69 0.56 0.27 0.25 0.22 0.21 0.21 0.09 0.06 0.06 0.04 0.02 0.02 0.06 0.92 0.67 0.31 0.10 0.15 0.11 0.10 0.06 0.08 0.21 0.26 0.28 0.31 0.34 0.24 0.33 0.49 0.55 0.50 0.47 0.48
0.00 0.00 0.00 0.00 0.06 0.00 0.01 0.00 0.00 0.00 0.03 0.01 0.00 0.01 0.01 0.01 0.10 0.12 0.06 0.05 0.04 0.06 0.10 0.11 0.10 0.09 0.05 0.08 0.12 0.17 0.14 0.12 0.18 0.28 0.33 0.32 0.24 0.41 0.80 1.32 0.96 0.96 0.80 1.78 2.00 1.14 0.77 0.79 0.93 1.55 1.25 0.85 0.58 0.39 0.27 0.35 0.70 0.98 0.49 0.75 0.65 0.45 0.34 0.25 0.26 0.27 0.10 0.18 0.48 0.19 0.08 0.06 0.03 0.03 0.01 0.02 0.12 0.09 0.09 0.06 0.09 0.14 0.12 0.15 0.32 0.36 0.41 0.46 0.62 0.27 0.34 0.20 0.29 0.22 0.19 0.34 0.46
0.00 0.00 0.00 0.02 0.07 0.04 0.00 0.04 0.01 0.03 0.01 0.00 0.01 0.01 0.04 0.26 0.14 0.05 0.06 0.08 0.06 0.04 0.03 0.04 0.05 0.08 0.06 0.08 0.08 0.15 0.14 0.10 0.29 0.50 0.30 0.37 0.37 0.93 1.06 0.74 0.86 1.21 1.39 1.28 1.08 0.98 0.77 0.76 1.16 1.57 2.05 1.10 0.70 0.45 0.70 1.12 0.34 0.38 0.51 0.72 0.38 0.29 0.15 0.29 0.54 0.12 0.15 0.24 0.40 0.20 0.09 0.04 0.02 0.02 0.02 0.02 0.03 0.09 0.08 0.10 0.08 0.20 0.11 0.35 0.50 0.27 0.33 0.16 0.56 0.27 0.26 0.09 0.14 0.22 0.17 0.33 0.32
0.00 0.00 0.00 0.01 0.05 0.03 0.01 0.02 0.04 0.04 0.11 0.05 0.00 0.02 0.09 0.01 0.48 0.08 0.11 0.09 0.04 0.03 0.01 0.02 0.01 0.02 0.09 0.08 0.03 0.10 0.11 0.12 0.21 0.19 0.25 0.30 0.58 0.67 1.22 1.04 0.71 1.51 1.07 0.73 0.43 0.93 1.13 1.10 0.71 1.14 1.01 0.92 1.05 1.06 2.18 1.06 0.47 0.55 0.51 0.88 0.34 0.21 0.18 0.57 0.22 0.13 0.15 0.25 0.06 0.05 0.02 0.02 0.01 0.01 0.01 0.02 0.07 0.16 0.08 0.02 0.10 0.05 0.10 0.17 0.09 0.16 0.18 0.15 0.26 0.25 0.24 0.05 0.04 0.10 0.05 0.16 0.43
0.00 0.00 0.00 0.03 0.01 0.00 0.02 0.15 0.03 0.14 0.04 0.03 0.06 0.04 0.08 0.29 0.65 0.07 0.02 0.06 0.07 0.04 0.02 0.02 0.04 0.07 0.05 0.14 0.07 0.14 0.11 0.09 0.08 0.17 0.26 0.50 1.07 1.22 0.83 0.68 1.62 1.11 1.42 1.11 0.68 0.66 0.43 0.56 1.13 1.27 1.13 1.33 2.35 2.40 1.66 1.12 1.13 0.83 0.82 0.72 0.42 0.23 0.16 0.11 0.09 0.12 0.09 0.05 0.02 0.01 0.01 0.01 0.01 0.01 0.01 0.02 0.11 0.17 0.31 0.06 0.02 0.02 0.05 0.06 0.12 0.13 0.13 0.15 0.08 0.21 0.12 0.09 0.08 0.08 0.09 0.08 0.29
0.01 0.00 0.00 0.00 0.00 0.00 0.01 0.00 0.00 0.00 0.00 0.03 0.00 0.09 0.08 0.27 0.44 0.09 0.22 0.02 0.07 0.07 0.05 0.03 0.05 0.19 0.16 0.18 0.16 0.13 0.08 0.08 0.15 0.27 0.34 0.86 1.40 0.96 0.98 0.92 0.91 0.74 0.96 1.22 0.70 0.78 0.99 1.33 1.64 1.36 1.35 1.28 1.21 1.16 1.24 1.26 1.73 1.38 1.06 0.70 0.43 0.29 0.25 0.25 0.13 0.17 0.25 0.31 0.12 0.01 0.01 0.00 0.00 0.01 0.01 0.04 0.04 0.02 0.10 0.10 0.02 0.02 0.03 0.03 0.25 0.11 0.12 0.22 0.19 0.15 0.12 0.13 0.09 0.16 0.18 0.21 0.20
0.00 0.04 0.01 0.00 0.00 0.01 0.02 0.04 0.00 0.00 0.00 0.05 0.01 0.03 0.12 0.02 0.19 0.21 0.14 0.47 0.12 0.17 0.19 0.14 0.35 0.53 0.84 0.76 0.59 0.32 0.23 0.23 0.26 0.29 0.55 0.69 0.44 0.59 0.36 0.58 0.82 0.87 1.11 0.83 0.41 0.31 0.35 0.77 0.67 0.94 0.91 1.20 2.05 1.33 1.54 1.48 0.96 1.11 0.93 0.87 0.66 0.64 0.39 0.39 0.53 0.53 0.19 0.18 0.07 0.03 0.02 0.02 0.01 0.01 0.01 0.01 0.01 0.01 0.01 0.01 0.01 0.02 0.04 0.05 0.18 0.10 0.10 0.46 0.47 0.31 0.51 0.21 0.24 0.33 0.25 0.21 0.13
0.00 0.09 0.02 0.00 0.02 0.01 0.02 0.00 0.01 0.00 0.01 0.03 0.02 0.05 0.07 0.14 0.22 0.25 0.27 0.13 0.17 0.32 0.37 0.46 0.45 0.61 0.29 0.35 0.50 0.34 0.47 0.72 0.46 0.74 0.84 0.35 0.48 0.58 0.25 0.63 0.76 0.81 0.79 0.61 0.59 0.47 0.51 0.73 1.02 1.16 0.69 0.86 0.80 1.30 1.15 1.02 0.94 1.65 1.29 0.87 0.77 0.51 0.53 0.49 0.24 0.16 0.17 0.09 0.07 0.02 0.02 0.01 0.01 0.01 0.02 0.02 0.01 0.01 0.01 0.00 0.01 0.01 0.02 0.04 0.12 0.09 0.50 0.46 0.12 0.24 0.11 0.21 0.25 0.12 0.12 0.26 0.17
0.00 0.00 0.00 0.00 0.00 0.08 0.04 0.00 0.03 0.00 0.13 0.01 0.11 0.03 0.21 0.22 0.28 0.40 0.19 0.06 0.10 0.05 0.09 0.20 0.29 0.33 0.85 0.63 0.47 0.70 0.56 0.59 0.63 0.81 0.29 0.34 0.42 0.74 1.06 0.50 0.46 0.54 0.45 0.58 0.57 0.53 1.05 0.98 1.05 0.97 1.13 0.77 0.87 0.85 1.08 1.17 1.14 0.55 0.86 1.06 0.50 0.31 0.38 0.41 0.46 0.45 0.14 0.06 0.02 0.02 0.02 0.02 0.01 0.01 0.01 0.01 0.01 0.01 0.01 0.01 0.01 0.01 0.01 0.01 0.02 0.54 0.30 0.26 0.08 0.05 0.09 0.10 0.12 0.11 0.13 0.08 0.14
0.00 0.00 0.00 0.00 0.00 0.09 0.00 0.06 0.09 0.06 0.05 0.06 0.07 0.10 0.31 0.22 0.22 0.34 0.41 0.17 0.07 0.06 0.18 0.18 0.20 0.23 0.43 0.59 0.96 0.75 0.85 0.43 0.91 1.23 1.36 0.98 1.17 1.24 1.10 0.97 0.85 1.18 0.85 0.79 0.71 0.67 0.77 0.89 1.51 2.07 1.30 0.95 0.84 0.76 0.97 1.19 0.83 0.58 0.62 0.57 0.90 0.56 0.66 0.62 0.34 0.37 0.15 0.11 0.03 0.02 0.01 0.01 0.01 0.01 0.03 0.01 0.01 0.01 0.00 0.00 0.00 0.01 0.01 0.01 0.03 0.13 0.05 0.10 0.05 0.02 0.09 0.08 0.13 0.11 0.15 0.31 0.08
0.00 0.00 0.01 0.00 0.01 0.01 0.01 0.01 0.01 0.01 0.02 0.15 0.07 0.16 0.23 0.31 0.21 0.26 0.15 0.08 0.23 0.22 0.20 0.22 0.29 0.21 0.64 0.91 1.18 1.11 0.62 0.68 1.81 2.88 1.63 2.83 2.71 3.62 4.28 1.86 1.56 1.87 2.25 2.53 0.81 0.99 0.83 0.77 0.59 0.68 0.92 1.20 0.85 0.65 0.65 0.69 0.71 1.01 0.47 0.62 0.58 0.65 0.75 0.83 0.45 0.28 0.29 0.23 0.12 0.02 0.01 0.00 0.00 0.01 0.01 0.00 0.00 0.00 0.00 0.00 0.00 0.03 0.11 0.02 0.03 0.09 0.24 0.07 0.02 0.04 0.02 0.04 0.09 0.06 0.03 0.12 0.02